Location: Kaltenbach
(49.2000°N, 7.7500°E)
Time: 12:51:27
(UTC+00:00)

Cosmos 2297 Rocket - Pass Details

Date: 24 January 2020
Orbit: 838 x 845 km, 71.0° (Epoch: 21 February)

Event Time Altitude Azimuth Distance (km) Brightness Sun altitude
Rises 19:23:48 0° 254° (WSW) 3,393 6.3 -31.1°
Reaches altitude 10° 19:26:48 10° 269° (W) 2,463 5.5 -31.6°
Maximum altitude 19:31:08 22° 319° (NW) 1,760 4.2 -32.3°
Enters shadow 19:33:47 16° 355° (N) 2,053 4.3 -32.7°
